FW8351 Weather Reports


time (UTC)temp
C
wind
direction
speed
KPH
gust
KPH
rain 1hr
cm
rain 24hr
cm
rain mn
cm
humidity
%
barometer
mb
20260504090106 10 288 0.0 0.0 0.00 0.00 0.00 92 1010.7
20260504081551 8 256 0.0 0.0 0.00 0.00 0.00 95 1010.8
20260504050009 6 58 0.0 0.0 0.00 0.00 0.00 94 1010.4
20260504044553 6 58 0.0 0.0 0.00 0.00 0.00 94 1010.3
20260504043055 6 29 0.0 0.0 0.00 0.00 0.00 94 1010.5
20260504041521 6 29 0.0 0.0 0.00 0.00 0.00 93 1010.7
20260504040047 6 29 0.0 0.0 0.00 0.00 0.00 93 1010.6
20260504034519 6 29 0.0 0.0 0.00 0.00 0.00 92 1010.7
20260504033102 7 274 0.0 0.0 0.00 0.00 0.00 92 1010.3
20260504031602 7 274 0.0 0.0 0.00 0.00 0.00 92 1010.6
20260504030057 7 274 0.0 0.0 0.00 0.00 0.00 93 1010.7
20260504024604 7 274 0.0 0.0 0.00 0.00 0.00 93 1010.8
20260504023027 7 274 0.0 0.0 0.00 0.00 0.00 93 1010.6
20260504021515 7 276 0.0 0.0 0.00 0.00 0.00 93 1010.7
20260504020058 7 276 0.0 0.0 0.00 0.00 0.00 93 1010.8
20260504014537 7 276 0.0 0.0 0.00 0.00 0.00 93 1011.0
20260504013118 7 276 0.0 0.0 0.00 0.00 0.00 93 1011.1
20260504011537 8 276 0.0 0.0 0.00 0.00 0.00 93 1011.2
20260504010010 8 143 0.0 0.0 0.00 0.00 0.00 93 1011.2
20260504004606 8 143 0.0 0.0 0.00 0.00 0.00 92 1011.3
20260504003034 8 143 0.0 0.0 0.00 0.00 0.00 92 1011.2
20260504001540 8 143 0.0 0.0 0.00 0.00 0.00 92 1011.1
20260504000030 8 143 0.0 0.0 0.00 0.00 0.00 92 1011.3
20260503234506 8 143 0.0 0.0 0.00 0.00 0.00 92 1011.4
20260503233057 8 143 0.0 0.0 0.00 0.00 0.00 92 1011.3
20260503231530 8 143 0.0 0.0 0.00 0.00 0.00 92 1011.4
20260503230057 8 47 0.0 0.0 0.00 0.00 0.00 92 1011.3
20260503224538 8 47 0.0 0.0 0.00 0.00 0.00 92 1011.3
20260503223039 8 199 0.0 0.0 0.00 0.00 0.00 91 1011.5
20260503221529 8 215 0.0 0.0 0.00 0.00 0.00 91 1011.7
20260503220007 8 316 0.0 0.0 0.00 0.00 0.00 91 1011.7
20260503214553 8 318 0.0 0.0 0.00 0.00 0.00 92 1011.5
20260503213046 8 315 0.0 0.0 0.00 0.00 0.00 92 1011.4
20260503211519 8 332 0.0 0.0 0.00 0.00 0.00 92 1011.4
20260503210045 8 318 0.0 0.0 0.00 0.00 0.00 92 1011.5
20260503204517 8 290 0.0 0.0 0.00 0.00 0.00 91 1011.4
20260503203042 8 289 0.0 12.9 0.00 0.00 0.00 90 1011.5
20260503201532 9 194 3.2 16.1 0.00 0.00 0.00 89 1011.3
20260503200040 9 212 0.0 6.4 0.00 0.00 0.00 88 1011.0
20260503194533 10 251 1.6 11.3 0.00 0.00 0.00 88 1010.7
20260503193040 10 273 0.0 3.2 0.00 0.00 0.00 87 1010.4
20260503191539 10 219 0.0 1.6 0.00 0.00 0.00 87 1010.3
20260503190027 10 268 0.0 0.0 0.00 0.00 0.00 87 1010.2
20260503184510 10 218 0.0 0.0 0.00 0.00 0.00 87 1010.1
20260503183012 10 218 0.0 0.0 0.00 0.00 0.00 86 1010.2
20260503181542 10 228 0.0 0.0 0.00 0.00 0.00 86 1010.3
20260503180043 10 320 0.0 8.0 0.00 0.00 0.00 87 1010.5
20260503174506 10 302 0.0 0.0 0.00 0.00 0.00 87 1010.5
20260503173056 10 290 0.0 4.8 0.00 0.00 0.00 87 1010.5
20260503171526 10 295 0.0 0.0 0.00 0.00 0.00 88 1010.5